IZ1UQG-1 Weather Reports


Display with metric or nautical units.
time (UTC)temp
F
wind
direction
speed
MPH
gust
MPH
rain 1hr
in
rain 24hr
in
rain mn
in
humidity
%
barometer
mb
20260507025851 52 0 0.0 0.0 4.77 0.38 0.00 83 1013.0
20260507025351 52 0 0.0 0.0 5.11 9.36 0.00 83 1013.0
20260507024851 52 0 0.0 0.0 5.36 9.04 0.00 82 1013.0
20260507024352 52 0 0.0 0.0 5.40 8.71 0.00 82 1013.2
20260507023852 52 0 0.0 0.0 5.42 8.14 0.00 82 1013.0
20260507023352 52 0 0.0 0.0 5.60 7.75 0.00 82 1013.0
20260507022852 52 0 0.0 0.0 5.44 7.24 0.00 82 1013.0
20260507022352 52 0 0.0 0.0 5.28 6.79 0.00 83 1012.9
20260507021852 52 0 0.0 0.0 4.89 6.12 0.00 83 1013.0
20260507021352 52 0 0.0 0.0 5.56 1.85 0.00 82 1012.9
20260507020852 52 0 0.0 0.0 5.26 1.85 0.00 83 1013.0
20260507020352 52 0 0.0 0.0 5.01 1.42 0.00 83 1012.9
20260507015852 52 0 0.0 0.0 5.52 0.69 0.00 82 1013.0
20260507015352 52 0 0.0 0.0 5.46 0.30 0.00 83 1013.0
20260507014852 53 0 0.0 0.0 5.24 9.22 0.00 83 1012.9
20260507014352 53 0 0.0 0.0 5.03 8.63 0.00 82 1013.0
20260507013852 53 0 0.0 0.0 5.73 8.18 0.00 83 1012.8
20260507013352 53 0 0.0 0.0 5.75 7.69 0.00 83 1012.6
20260507012852 53 0 0.0 0.0 5.64 7.32 0.00 82 1012.9
20260507012352 53 0 0.0 0.0 5.56 7.04 0.00 82 1012.6
20260507011852 53 0 0.0 0.0 5.32 6.41 0.00 82 1012.6
20260507011352 53 0 0.0 0.0 5.81 1.85 0.00 82 1012.5
20260507010852 53 0 0.0 0.0 6.01 1.85 0.00 82 1012.4
20260507010352 53 0 0.0 0.0 6.19 1.85 0.00 82 1012.3
20260507005852 53 0 0.0 0.0 6.36 0.97 0.00 82 1012.4
20260507005352 53 0 0.0 0.0 6.05 0.42 0.00 82 1012.3
20260507004852 54 0 0.0 0.0 6.05 0.03 0.00 82 1012.4
20260507004352 54 0 0.0 0.0 6.01 8.94 0.00 82 1012.2
20260507003852 54 0 0.0 0.0 5.71 8.26 0.00 82 1012.3
20260507003352 54 0 0.0 0.0 5.64 7.49 0.00 82 1012.4
20260507002852 54 0 0.0 0.0 5.99 7.28 0.00 82 1012.2
20260507002352 55 0 0.0 0.0 6.19 6.90 0.00 82 1012.3
20260507001852 55 0 0.0 0.0 6.01 6.28 0.00 82 1012.2
20260507001352 55 0 0.0 0.0 5.91 1.85 0.00 82 1012.5
20260507000852 55 0 0.0 0.0 5.99 1.85 0.00 82 1012.5
20260507000352 55 0 0.0 0.0 6.32 1.85 0.00 82 1012.3
20260506235852 55 0 0.0 0.0 5.77 1.05 0.00 82 1012.3
20260506235352 55 0 0.0 0.0 6.11 0.73 0.00 82 1012.4
20260506234852 55 0 0.0 0.0 5.91 9.28 0.00 82 1012.4
20260506234352 55 0 0.0 0.0 6.26 8.92 0.00 82 1012.3
20260506233852 55 0 0.0 0.0 5.93 8.20 0.00 82 1012.2
20260506233352 55 0 0.0 0.0 6.62 7.98 0.00 82 1012.3
20260506232852 55 0 0.0 0.0 5.77 7.12 0.00 82 1012.3
20260506232352 55 0 0.0 0.0 5.73 6.63 0.00 82 1012.2
20260506231852 55 0 0.0 0.0 6.19 6.35 0.00 82 1012.1
20260506231352 55 0 0.0 0.0 6.03 1.85 0.00 82 1012.2
20260506230852 55 0 0.0 0.0 5.46 1.85 0.00 82 1012.2
20260506230352 55 0 0.0 0.0 5.50 1.52 0.00 82 1012.5
20260506225852 55 0 0.0 0.0 5.73 0.77 0.00 82 1012.2
20260506225352 55 0 0.0 0.0 6.01 0.48 0.00 82 1012.2
20260506224852 55 0 0.0 0.0 5.46 9.26 0.00 82 1012.2
20260506224352 55 0 0.0 0.0 4.97 8.43 0.00 82 1012.0
20260506223852 56 0 0.0 0.0 5.44 7.92 0.00 82 1012.0
20260506223352 56 0 0.0 0.0 5.09 7.51 0.00 82 1012.1
20260506222852 56 0 0.0 0.0 4.89 7.06 0.00 82 1012.1
20260506222352 56 0 0.0 0.0 4.67 6.63 0.00 82 1012.1
20260506221852 56 0 0.0 0.0 4.52 6.04 0.00 82 1011.9
20260506221352 56 0 0.0 0.0 5.46 1.85 0.00 82 1011.8
20260506220852 56 0 0.0 0.0 5.22 1.65 0.00 82 1011.8
20260506220352 56 0 0.0 0.0 5.44 1.42 0.00 82 1011.8
20260506215852 56 0 0.0 0.0 5.15 0.67 0.00 82 1011.9
20260506215352 56 0 0.0 0.0 5.79 0.10 0.00 82 1011.8
20260506214852 56 0 0.0 0.0 6.15 9.24 0.00 82 1011.8
20260506214352 56 0 0.0 0.0 6.28 8.65 0.00 82 1012.0
20260506213852 56 0 0.0 0.0 6.13 8.10 0.00 82 1011.8
20260506213352 56 0 0.0 0.0 6.64 7.79 0.00 82 1011.8
20260506212852 56 0 0.0 0.0 6.72 7.49 0.00 82 1011.8
20260506212352 56 0 0.0 0.0 6.70 7.14 0.00 82 1011.8
20260506211852 56 0 0.0 0.0 6.79 6.45 0.00 82 1011.9
20260506211352 56 0 0.0 0.0 6.99 1.85 0.00 82 1011.7
20260506210852 57 0 0.0 0.0 6.60 1.85 0.00 81 1011.7
20260506210352 57 0 0.0 0.0 6.42 1.85 0.00 81 1011.7
20260506205852 57 0 0.0 0.0 5.95 1.50 0.00 81 1011.6
20260506205352 57 0 0.0 0.0 6.26 0.95 0.00 81 1011.4
20260506204852 57 0 0.0 0.0 5.97 0.14 0.00 81 1011.3
20260506204352 57 0 0.0 0.0 5.75 8.96 0.00 81 1011.6
20260506203852 57 0 0.0 0.0 6.07 8.41 0.00 81 1011.6
20260506203352 57 0 0.0 0.0 5.64 7.92 0.00 81 1011.5
20260506202852 57 0 0.0 0.0 5.71 7.51 0.00 81 1011.4
20260506202352 57 0 0.0 0.0 5.62 7.06 0.00 81 1011.5
20260506201852 57 0 0.0 0.0 5.01 6.35 0.00 81 1011.2
20260506201352 57 0 0.0 0.0 5.09 1.75 0.00 81 1011.1
20260506200852 57 0 0.0 0.0 5.32 1.54 0.00 81 1011.0
20260506200353 57 0 0.0 0.0 5.46 0.99 0.00 81 1011.0
20260506195852 58 0 0.0 0.0 4.81 0.20 0.00 81 1010.9
20260506195352 58 0 0.0 0.0 5.66 9.16 0.00 80 1011.0
20260506194852 58 0 0.0 0.0 5.54 8.59 0.00 80 1010.9
20260506194352 58 0 0.0 0.0 5.85 8.45 0.00 80 1010.8
20260506193852 58 0 0.0 0.0 5.68 7.77 0.00 80 1010.7
20260506193352 58 0 0.0 0.0 6.46 7.55 0.00 80 1010.6
20260506192852 58 0 0.0 0.0 6.03 6.90 0.00 80 1010.5
20260506192352 58 0 0.0 0.0 6.13 6.59 0.00 80 1010.3
20260506191852 59 0 0.0 0.0 7.79 6.08 0.00 80 1010.4
20260506191352 59 0 0.0 0.0 7.48 1.85 0.00 80 1010.2
20260506190852 59 0 0.0 0.0 7.91 1.85 0.00 80 1010.0
20260506190352 59 0 0.0 0.0 8.03 1.85 0.00 80 1009.9
20260506185852 59 0 0.0 0.0 9.64 1.85 0.00 80 1009.7
20260506185352 59 0 0.0 0.0 9.44 1.73 0.00 80 1009.7
20260506184852 60 0 0.0 0.0 9.76 1.28 0.00 79 1009.4
20260506184352 60 0 0.0 0.0 9.56 0.67 0.00 79 1009.3
20260506183852 60 0 0.0 0.0 9.56 8.96 0.00 78 1009.2
20260506183352 60 0 0.0 0.0 1.54 8.92 0.00 78 1009.0
20260506182852 60 0 0.0 0.0 1.93 8.34 0.00 77 1009.1
20260506182352 61 0 0.0 0.0 1.90 7.75 0.00 76 1009.0
20260506181852 61 0 0.0 0.0 1.46 6.12 0.00 77 1008.9
20260506181352 61 0 0.0 0.0 3.09 1.85 0.00 77 1009.0
20260506180852 61 0 0.0 0.0 3.47 1.85 0.00 76 1008.7
20260506180352 61 0 0.0 0.0 2.99 1.85 0.00 76 1008.8
20260506175852 61 0 0.0 0.0 1.40 1.85 0.00 75 1008.8
20260506175352 62 0 0.0 0.0 2.39 1.85 0.00 75 1008.6
20260506174852 62 0 0.0 0.0 3.05 1.85 0.00 76 1008.4
20260506174352 62 0 0.0 0.0 2.21 1.85 0.00 76 1008.1
20260506173852 62 0 0.0 0.0 1.72 1.85 0.00 77 1008.3
20260506173352 62 0 0.0 0.0 2.09 0.34 0.00 77 1008.3
20260506172852 62 0 0.0 0.0 2.23 0.01 0.00 77 1008.2
20260506172352 62 0 0.0 0.0 2.31 8.22 0.00 77 1008.4
20260506171852 62 0 0.0 0.0 1.31 6.45 0.00 77 1008.2
20260506171352 62 0 0.0 0.0 1.60 1.85 0.00 78 1008.3
20260506170852 62 0 0.0 0.0 1.68 1.85 0.00 78 1008.3
20260506170352 62 0 0.0 0.0 1.84 1.85 0.00 79 1008.4
20260506165852 62 0 0.0 0.0 1.46 1.85 0.00 80 1008.2
20260506165352 62 0 0.0 0.0 1.93 1.85 0.00 80 1008.3
20260506164852 62 0 0.0 0.0 1.93 1.85 0.00 80 1008.2
20260506164352 61 0 0.0 0.0 2.58 1.85 0.00 80 1008.1
20260506163852 61 0 0.0 0.0 2.03 1.85 0.00 80 1008.3
20260506163353 61 0 0.0 0.0 1.19 0.12 0.00 81 1008.3
20260506162853 61 0 0.0 0.0 0.82 8.26 0.00 81 1008.2
20260506162353 61 0 0.0 0.0 1.11 7.55 0.00 82 1008.2
20260506161853 61 0 0.0 0.0 1.15 6.71 0.00 83 1008.2
20260506161352 62 0 0.0 0.0 1.80 1.85 0.00 84 1007.9
20260506160853 61 0 0.0 0.0 0.27 1.85 0.00 85 1007.9
20260506160352 61 0 0.0 0.0 0.89 1.85 0.00 85 1008.1
20260506155853 61 0 0.0 0.0 0.33 1.85 0.00 85 1008.3
20260506155353 60 0 0.0 0.0 1.07 1.85 0.00 85 1008.3
20260506154853 60 0 0.0 0.0 9.95 1.85 0.00 86 1008.4
20260506154353 60 0 0.0 0.0 0.27 1.85 0.00 86 1008.4
20260506153853 59 0 0.0 0.0 0.05 1.28 0.00 85 1008.6
20260506153353 59 0 0.0 0.0 0.33 0.34 0.00 85 1008.5
20260506152853 59 0 0.0 0.0 9.82 8.65 0.00 85 1008.7
20260506152353 59 0 0.0 0.0 9.76 8.14 0.00 86 1008.9
20260506151853 58 0 0.0 0.0 9.46 6.79 0.00 86 1008.8
20260506151353 58 0 0.0 0.0 8.93 1.85 0.00 86 1008.9
20260506150853 58 0 0.0 0.0 8.64 1.85 0.00 86 1009.1
20260506150353 58 0 0.0 0.0 7.97 1.85 0.00 86 1008.8
20260506145853 58 0 0.0 0.0 7.11 1.85 0.00 86 1008.9
20260506145353 58 0 0.0 0.0 8.01 1.85 0.00 86 1009.0
20260506144853 57 0 0.0 0.0 7.17 0.93 0.00 86 1009.0
20260506144353 58 0 0.0 0.0 7.05 0.38 0.00 86 1009.1
20260506143853 58 0 0.0 0.0 6.40 8.61 0.00 86 1009.1
20260506143353 57 0 0.0 0.0 6.75 8.30 0.00 86 1009.1
20260506142853 58 0 0.0 0.0 6.70 7.65 0.00 86 1009.3
20260506142353 57 0 0.0 0.0 6.26 7.12 0.00 86 1009.4
20260506141853 57 0 0.0 0.0 6.24 6.41 0.00 86 1009.4
20260506141353 57 0 0.0 0.0 6.22 1.85 0.00 86 1009.5
20260506140853 57 0 0.0 0.0 6.46 1.85 0.00 86 1009.4
20260506140353 57 0 0.0 0.0 6.13 1.85 0.00 86 1009.5
20260506135853 57 0 0.0 0.0 5.34 0.73 0.00 86 1009.3
20260506135353 57 0 0.0 0.0 5.36 0.32 0.00 86 1009.4
20260506134853 57 0 0.0 0.0 5.36 9.26 0.00 86 1009.3
20260506134353 56 0 0.0 0.0 5.07 8.87 0.00 85 1009.5
20260506133853 56 0 0.0 0.0 4.91 8.34 0.00 85 1009.7
20260506133353 56 0 0.0 0.0 4.85 7.94 0.00 85 1009.7
20260506132353 55 0 0.0 0.0 4.56 7.18 0.00 84 1009.7
20260506131853 55 0 0.0 0.0 4.11 6.41 0.00 84 1009.7
20260506131353 55 0 0.0 0.0 4.13 1.81 0.00 84 1009.8
20260506130853 55 0 0.0 0.0 3.69 1.20 0.00 84 1009.8
20260506130353 55 0 0.0 0.0 3.54 0.97 0.00 84 1009.8
20260506125853 55 0 0.0 0.0 3.54 0.59 0.00 84 1009.7
20260506125353 55 0 0.0 0.0 3.42 0.16 0.00 84 1009.6
20260506124853 54 0 0.0 0.0 3.16 9.08 0.00 83 1009.5
20260506124353 54 0 0.0 0.0 3.46 8.69 0.00 83 1009.5
20260506123853 54 0 0.0 0.0 3.12 8.34 0.00 83 1009.4
20260506123353 54 0 0.0 0.0 3.71 8.16 0.00 83 1009.4
20260506122853 54 0 0.0 0.0 3.69 7.92 0.00 83 1009.3
20260506122353 54 0 0.0 0.0 3.97 7.65 0.00 83 1009.1
20260506121853 55 0 0.0 0.0 4.87 7.10 0.00 84 1009.2
20260506121353 55 0 0.0 0.0 5.09 0.85 0.00 84 1009.4
20260506120905 55 0 0.0 0.0 5.91 0.77 0.00 84 1009.3
20260506115853 55 0 0.0 0.0 6.60 0.39 0.00 84 1008.8
20260506115353 56 0 0.0 0.0 7.64 1.87 0.00 84 1008.6
20260506114853 56 0 0.0 0.0 8.60 1.48 0.00 84 1008.5
20260506113353 57 0 0.0 0.0 0.52 0.34 0.00 84 1007.7
20260506112853 57 0 0.0 0.0 0.76 9.24 0.00 84 1007.6
20260506112353 57 0 0.0 0.0 0.86 8.59 0.00 84 1007.6
20260506111853 57 0 0.0 0.0 0.52 7.49 0.00 84 1007.7
20260506111353 57 0 0.0 0.0 1.86 0.96 0.00 85 1007.8
20260506110853 57 0 0.0 0.0 1.50 0.96 0.00 84 1007.7
20260506110353 57 0 0.0 0.0 1.44 0.96 0.00 84 1007.6
20260506105853 57 0 0.0 0.0 3.35 0.96 0.00 85 1007.4
20260506105353 57 0 0.0 0.0 2.56 0.96 0.00 85 1007.3
20260506104853 57 0 0.0 0.0 2.31 0.96 0.00 85 1007.7
20260506104353 57 0 0.0 0.0 2.13 0.96 0.00 85 1007.8
20260506103853 58 0 0.0 0.0 2.21 0.96 0.00 85 1008.0
20260506103353 58 0 0.0 0.0 3.11 0.06 0.00 85 1007.8
20260506102853 58 0 0.0 0.0 3.27 1.24 0.00 85 1007.9
20260506102353 58 0 0.0 0.0 3.39 0.48 0.00 85 1007.9
20260506101853 58 0 0.0 0.0 2.48 8.10 0.00 85 1007.8
20260506101353 58 0 0.0 0.0 2.58 0.96 0.00 85 1007.9
20260506100853 58 0 0.0 0.0 3.21 0.96 0.00 85 1007.9
20260506100353 58 0 0.0 0.0 3.37 0.96 0.00 85 1007.8
20260506095853 58 0 0.0 0.0 1.74 0.96 0.00 85 1007.8
20260506095353 58 0 0.0 0.0 3.35 0.96 0.00 85 1007.7
20260506094853 58 0 0.0 0.0 3.45 0.96 0.00 85 1007.6
20260506094353 58 0 0.0 0.0 3.86 0.96 0.00 85 1007.6
20260506093853 58 0 0.0 0.0 2.97 0.39 0.00 85 1007.5
20260506093353 58 0 0.0 0.0 3.17 1.44 0.00 85 1007.5
20260506092853 58 0 0.0 0.0 2.64 9.04 0.00 85 1007.6
20260506092353 58 0 0.0 0.0 3.09 8.43 0.00 85 1007.6
20260506091853 58 0 0.0 0.0 2.39 7.24 0.00 85 1007.5
20260506091353 58 0 0.0 0.0 2.50 0.96 0.00 85 1007.6
20260506090853 58 0 0.0 0.0 1.93 0.96 0.00 85 1007.4
20260506090353 58 0 0.0 0.0 3.07 0.96 0.00 85 1007.4
20260506085853 58 0 0.0 0.0 2.01 0.96 0.00 86 1007.3
20260506085353 58 0 0.0 0.0 1.90 0.96 0.00 86 1007.4
20260506084853 58 0 0.0 0.0 0.72 0.96 0.00 86 1007.5
20260506084353 58 0 0.0 0.0 0.84 0.85 0.00 87 1007.6
20260506083853 58 0 0.0 0.0 0.66 1.89 0.00 87 1007.5
20260506083353 58 0 0.0 0.0 1.21 1.22 0.00 87 1007.4
20260506082853 58 0 0.0 0.0 9.95 8.85 0.00 86 1007.4
20260506082353 58 0 0.0 0.0 9.87 8.24 0.00 86 1007.4
20260506081853 58 0 0.0 0.0 0.48 7.28 0.00 86 1007.5
20260506081353 57 0 0.0 0.0 0.89 0.96 0.00 85 1007.6
20260506080853 57 0 0.0 0.0 0.19 0.96 0.00 84 1007.6
20260506080353 57 0 0.0 0.0 9.97 0.96 0.00 84 1007.7
20260506073353 56 0 0.0 0.0 9.60 1.14 0.00 84 1008.1
20260506072853 56 0 0.0 0.0 9.19 0.40 0.00 84 1008.1
20260506072353 56 0 0.0 0.0 8.50 8.43 0.00 84 1008.3
20260506071853 56 0 0.0 0.0 8.23 7.53 0.00 84 1008.3
20260506071353 56 0 0.0 0.0 8.50 0.96 0.00 84 1008.2
20260506070853 56 0 0.0 0.0 8.48 0.96 0.00 84 1008.2
20260506070353 56 0 0.0 0.0 8.19 0.96 0.00 85 1008.1
20260506062353 56 0 0.0 0.0 6.24 8.04 0.00 84 1008.2
20260506061853 56 0 0.0 0.0 6.05 7.49 0.00 84 1008.2
20260506061353 56 0 0.0 0.0 6.15 0.96 0.00 84 1008.1
20260506060853 56 0 0.0 0.0 5.85 0.96 0.00 83 1008.2
20260506060353 56 0 0.0 0.0 6.09 0.96 0.00 83 1008.3
20260506051354 56 0 0.0 0.0 9.05 0.96 0.00 82 1009.0
20260506050854 56 0 0.0 0.0 8.68 0.96 0.00 82 1009.1
20260506050354 56 0 0.0 0.0 9.44 0.96 0.00 82 1009.0
20260506044854 56 0 0.0 0.0 9.07 0.24 0.00 82 1009.2
20260506044354 56 0 0.0 0.0 9.21 1.56 0.00 82 1009.0
20260506043854 56 0 0.0 0.0 9.54 0.95 0.00 82 1009.0
20260506043354 56 0 0.0 0.0 0.42 0.22 0.00 82 1009.1
20260506042854 56 0 0.0 0.0 0.99 0.05 0.00 82 1009.2
20260506042354 56 0 0.0 0.0 0.78 8.75 0.00 82 1009.2
20260506041854 56 0 0.0 0.0 0.62 7.55 0.00 82 1009.4
20260506041354 56 0 0.0 0.0 2.11 0.96 0.00 81 1009.3
20260506040854 56 0 0.0 0.0 2.35 0.96 0.00 81 1009.4
20260506040354 56 0 0.0 0.0 2.74 0.96 0.00 81 1009.4
20260506035854 56 0 0.0 0.0 2.17 0.96 0.00 81 1009.4
20260506035354 56 0 0.0 0.0 3.39 0.96 0.00 81 1009.5
20260506034854 56 0 0.0 0.0 3.76 0.96 0.00 81 1009.4
20260506034354 56 0 0.0 0.0 3.62 0.96 0.00 81 1009.5
20260506033854 56 0 0.0 0.0 2.84 0.96 0.00 81 1009.5
20260506033354 56 0 0.0 0.0 3.70 0.00 0.00 80 1009.4
20260506032854 56 0 0.0 0.0 3.78 0.85 0.00 80 1009.5
20260506032354 56 0 0.0 0.0 3.96 0.26 0.00 80 1009.7
20260506031854 56 0 0.0 0.0 2.41 7.73 0.00 80 1009.7
20260506031354 56 0 0.0 0.0 2.70 0.96 0.00 80 1009.7
20260506030854 56 0 0.0 0.0 2.62 0.96 0.00 80 1009.8
20260506030354 57 0 0.0 0.0 2.54 0.96 0.00 80 1009.9